[[[{"header":{"parameterUnit":"kt","parameterCategory":2,"dx":1,"dy":1,"la1":30.253999710083008,"la2":30.299108505249023,"lo1":-89.0895004272461,"lo2":-89.04439544677734,"nx":28,"ny":28,"refTime":"2022-10-20T21:00:00:Z","depth":0,"parameterNumber":1,"parameterNumberName":"U-component_of_WINDS"},"data":[-7.2333,-7.244,-7.2463,-7.2597,-7.264,-7.2735,-7.2776,-7.2832,-7.2883,-7.3001,-7.3073,-7.3107,-7.3167,-7.3259,-7.3339,-7.3353,-7.3383,-7.3407,-7.3418,-7.3294,-7.3278,-7.3263,-7.3236,-7.3414,-7.3415,-7.3541,-7.3542,-7.3543,-7.2246,-7.2289,-7.2366,-7.2455,-7.2522,-7.2514,-7.2585,-7.264,-7.2726,-7.2789,-7.2861,-7.2966,-7.3053,-7.3105,-7.3192,-7.3244,-7.3244,-7.3266,-7.326,-7.3269,-7.3139,-7.3111,-7.3265,-7.3265,-7.3265,-7.3265,-7.3265,-7.3265,-7.2093,-7.2156,-7.2221,-7.2305,-7.2356,-7.2416,-7.248,-7.2519,-7.2595,-7.2686,-7.2698,-7.2795,-7.2862,-7.2977,-7.3021,-7.3098,-7.3077,-7.3107,-7.3114,-7.312,-7.3124,-7.2935,-7.3115,-7.3114,-7.3114,-7.3114,-7.3113,0,-7.1985,-7.1999,-7.2072,-7.2154,-7.2216,-7.228,-7.2343,-7.2384,-7.2419,-7.248,-7.2571,-7.2626,-7.2737,-7.2824,-7.291,-7.2949,-7.2943,-7.2946,-7.2966,-7.2958,-7.2943,-7.295,-7.2733,-7.2938,-7.2937,-7.2936,-7.2935,-7.2935,-7.1829,-7.19,-7.1978,-7.2027,-7.2065,-7.2145,-7.2196,-7.2221,-7.2275,-7.2356,-7.2412,-7.25,-7.257,-7.2712,-7.2755,-7.2838,-7.2834,-7.291,-7.2846,-7.2839,-7.2832,-7.2826,-7.2833,-7.292,-7.2922,-7.2923,-7.2924,0,-7.1738,-7.1771,-7.1887,-7.1956,-7.1976,-7.205,-7.2109,-7.2174,-7.2203,-7.2296,-7.232,-7.2365,-7.2453,-7.2483,-7.259,-7.2603,-7.2728,-7.2725,-7.2705,-7.2705,-7.2774,-7.2765,-7.2996,-7.3027,-7.2847,-7.2849,-7.2851,0,-7.1615,-7.1708,-7.175,-7.1815,-7.192,-7.194,-7.2044,-7.2078,-7.2133,-7.2206,-7.2204,-7.2273,-7.2301,-7.2375,-7.2394,-7.2502,-7.2523,-7.2538,-7.254,-7.2535,-7.2533,-7.2559,-7.2549,-7.2548,-7.2547,-7.2546,-7.2545,0,-7.1466,-7.1597,-7.1705,-7.1739,-7.1819,-7.187,-7.1906,-7.1967,-7.2016,-7.2086,-7.2118,-7.2199,-7.2242,-7.2305,-7.2327,-7.2283,-7.2461,-7.2403,-7.2475,-7.2475,-7.2507,-7.2504,-7.2707,-7.2543,-7.2543,-7.2543,-7.2542,0,-7.1368,-7.1436,-7.1588,-7.1655,-7.1688,-7.1759,-7.1837,-7.1905,-7.1969,-7.1984,-7.2039,-7.2039,-7.2136,-7.2077,-7.2211,-7.2146,-7.2189,-7.2213,-7.2219,-7.2224,-7.2155,-7.226,-7.2454,-7.2473,-7.2237,-7.2235,-7.2233,0,-7.1188,-7.1348,-7.1364,-7.1508,-7.1585,-7.1575,-7.1655,-7.171,-7.1737,-7.1808,-7.1838,-7.1918,-7.188,-7.1908,-7.1972,-7.2004,-7.209,-7.1995,-7.2095,-7.2098,-7.2074,-7.2254,-7.2272,-7.241,-7.22,-7.2204,-7.2206,0,-7.105,-7.1144,-7.1168,-7.1207,-7.1281,-7.1345,-7.1438,-7.152,-7.1565,-7.1628,-7.1704,-7.1819,-7.1794,-7.184,-7.1847,-7.1911,-7.2033,-7.1875,-7.1877,-7.19,-7.2187,-7.2204,-7.2227,-7.2024,-7.2028,-7.2031,-7.2181,0,-7.0892,-7.0974,-7.1042,-7.1125,-7.118,-7.127,-7.1296,-7.135,-7.1351,-7.1374,-7.1489,-7.154,-7.1622,-7.1656,-7.1656,-7.1794,-7.1774,-7.1746,-7.1685,-7.1804,-7.1854,-7.1874,-7.161,-7.1608,-7.1607,-7.1606,0,0,-7.0709,-7.0827,-7.0838,-7.0925,-7.0971,-7.0955,-7.1049,-7.1092,-7.1178,-7.121,-7.1178,-7.1343,-7.1384,-7.152,-7.1559,-7.1593,-7.162,-7.1575,-7.1748,-7.1764,-7.1779,-7.1831,-7.1852,-7.1603,-7.1603,-7.1602,-7.1602,0,-7.0654,-7.0696,-7.0788,-7.0833,-7.0898,-7.0918,-7.0941,-7.1002,-7.1021,-7.1132,-7.1115,-7.1187,-7.1317,-7.1363,-7.1403,-7.1562,-7.1543,-7.1586,-7.1662,-7.1734,-7.1751,-7.1767,-7.1822,-7.1842,-7.1599,-7.1599,-7.1599,0,-7.052,-7.0565,-7.0611,-7.0713,-7.0754,-7.0833,-7.0778,-7.0863,-7.0922,-7.0896,-7.1005,-7.1037,-7.11,-7.1224,-7.1281,-7.1252,-7.1472,-7.1407,-7.1416,-7.1421,-7.1492,-7.1514,-7.1532,-7.1284,-7.1282,-7.1281,0,0,-7.0469,-7.0544,-7.0596,-7.0702,-7.073,-7.0759,-7.0803,-7.0805,-7.0861,-7.0883,-7.0921,-7.0976,-7.1052,-7.1101,-7.1173,-7.1307,-7.1321,-7.1367,-7.1382,-7.1394,-7.1406,-7.148,-7.1501,-7.1277,-7.1277,-7.1276,0,0,-7.0443,-7.0507,-7.0496,-7.0621,-7.0675,-7.0732,-7.0796,-7.0783,-7.085,-7.0841,-7.0849,-7.0864,-7.0981,-7.1011,-7.0948,-7.1152,-7.1092,-7.1108,-7.1126,-7.1145,-7.116,-7.1148,-7.0894,0,0,0,0,0,-7.0397,-7.0499,-7.0488,-7.0513,-7.0638,-7.0738,-7.0755,-7.0763,-7.0721,-7.0772,-7.0801,-7.0778,-7.0979,-7.0923,-7.0947,-7.1016,-7.1218,-7.1228,-7.1238,-7.1294,-7.1313,-7.133,0,0,0,0,0,0,-7.0406,-7.0436,-7.0486,-7.0547,-7.0575,-7.0735,-7.0665,-7.067,-7.0716,-7.071,-7.0773,-7.078,-7.0789,-7.0911,-7.0933,-7.0998,-7.0887,-7.1222,-7.1231,-7.1239,-7.13,-7.1317,-7.133,0,0,0,0,0,-7.0414,-7.0438,-7.0636,-7.0545,-7.057,-7.0606,-7.0661,-7.0665,-7.07,-7.0744,-7.075,-7.0702,-7.0791,-7.081,-7.0924,-7.0988,-7.0872,-7.088,-7.1228,-7.1235,-7.1241,-7.1308,0,0,0,0,0,0,-7.042,-7.0442,-7.0641,-7.0649,-7.0506,-7.0597,-7.0612,-7.0661,-7.0732,-7.0739,-7.0673,-7.0667,-7.0793,-7.0808,-7.0822,-7.0984,-7.086,-7.0868,-7.0873,-7.1233,-7.1239,-7.1243,0,0,0,0,0,0,-7.0429,-7.0449,-7.0645,-7.0595,-7.0597,-7.0589,-7.0602,-7.07,-7.0733,-7.0656,-7.0654,-7.0669,-7.0771,-7.0807,-7.0818,-7.097,-7.085,-7.0858,-7.0864,-7.0867,-7.1238,-7.1242,0,0,0,0,0,0,-7.0438,-7.0455,-7.0593,-7.0595,-7.0596,-7.0685,-7.0675,-7.0803,-7.0689,-7.0653,-7.0679,-7.0675,-7.0771,-7.0783,-7.0815,-7.0963,-7.0968,-7.0851,-7.0856,-7.086,-7.0862,0,0,0,0,0,0,0,-7.0445,-7.033,-7.0595,-7.0594,-7.0596,-7.0722,-7.0724,-7.0726,-7.0688,-7.0685,-7.0681,-7.0677,-7.0805,-7.0814,-7.0823,-7.0957,0,0,-7.085,-7.0854,0,0,0,0,0,0,0,0,-7.0323,-7.0328,-7.0595,-7.0597,-7.0598,-7.0722,-7.0724,-7.0726,-7.0688,-7.0685,-7.0681,-7.0678,-7.0808,-7.0814,-7.0822,0,0,0,0,0,0,0,0,0,0,0,0,0,0,0,-7.0595,-7.0597,0,-7.0722,-7.0724,-7.0725,-7.0687,-7.0685,-7.0682,-7.068,-7.0809,-7.0815,-7.0821,0,0,0,0,0,0,0,0,0,0,0,0,0,0,0,0,0,0,0,0,0,0,0,0,0,0,0,0,0,0,0,0,0,0,0,0,0,0,0,0,0,0,0,0,0,0,0,0,0,0,0,0,0,0,0,0,0,0,0,0,0,0,0,0,0,0,0,0,0]}],[{"header":{"parameterUnit":"kt","parameterCategory":2,"dx":1,"dy":1,"la1":30.253999710083008,"la2":30.299108505249023,"lo1":-89.0895004272461,"lo2":-89.04439544677734,"nx":28,"ny":28,"refTime":"2022-10-20T21:00:00:Z","depth":0,"parameterNumber":2,"parameterNumberName":"V-component_of_WINDS"},"data":[5.4507,5.4431,5.4426,5.4334,5.4314,5.4249,5.4224,5.419,5.416,5.4079,5.4031,5.4014,5.3978,5.3915,5.386,5.3852,5.3828,5.3807,5.3801,5.3907,5.3921,5.3934,5.3954,5.3802,5.3802,5.3692,5.3691,5.369,5.4589,5.4569,5.452,5.4467,5.4424,5.4442,5.44,5.4362,5.4302,5.4264,5.4216,5.4142,5.4081,5.4051,5.399,5.395,5.3953,5.3934,5.3936,5.3929,5.4043,5.4064,5.3934,5.3934,5.3934,5.3934,5.3934,5.3934,5.4736,5.469,5.4656,5.4601,5.4573,5.4537,5.449,5.4472,5.442,5.4359,5.4359,5.4289,5.4247,5.4167,5.4138,5.408,5.4098,5.4074,5.4067,5.4061,5.4056,5.4216,5.4069,5.407,5.407,5.407,5.407,0,5.4841,5.4841,5.4792,5.4742,5.4701,5.466,5.4621,5.4591,5.4581,5.4538,5.4474,5.4435,5.4357,5.4293,5.4233,5.4206,5.4214,5.4214,5.4197,5.4196,5.4204,5.4198,5.4383,5.4217,5.4218,5.4219,5.422,5.422,5.4988,5.4935,5.4895,5.4862,5.4839,5.4784,5.4749,5.4744,5.4706,5.4654,5.4611,5.4549,5.4498,5.4392,5.4365,5.4304,5.4306,5.4245,5.4297,5.43,5.4304,5.4307,5.4301,5.4233,5.4232,5.423,5.4229,0,5.5072,5.5062,5.4976,5.4941,5.493,5.4873,5.484,5.4791,5.4777,5.4707,5.469,5.4666,5.4601,5.4583,5.4503,5.4495,5.4396,5.4401,5.4412,5.4411,5.4353,5.4358,5.4169,5.4143,5.4301,5.43,5.4299,0,5.5192,5.5121,5.511,5.5061,5.4982,5.4979,5.4899,5.4879,5.4844,5.4789,5.4799,5.4746,5.4732,5.4675,5.4663,5.4579,5.4564,5.4552,5.4549,5.455,5.4551,5.4525,5.4532,5.4547,5.4548,5.4548,5.4549,0,5.5322,5.5232,5.5153,5.513,5.5082,5.5044,5.5021,5.4981,5.4945,5.4896,5.4872,5.4813,5.4779,5.4732,5.4718,5.4754,5.4614,5.4661,5.4602,5.4602,5.4569,5.4571,5.4411,5.455,5.4551,5.4551,5.4551,0,5.5417,5.5372,5.5257,5.5218,5.5194,5.514,5.5084,5.5034,5.499,5.4981,5.494,5.4943,5.4869,5.4917,5.4813,5.4865,5.4831,5.4813,5.4808,5.4798,5.4851,5.4761,5.4612,5.4595,5.4792,5.4794,5.4796,0,5.5568,5.545,5.5448,5.5337,5.5281,5.5298,5.5237,5.5198,5.518,5.5127,5.5106,5.5042,5.5074,5.5052,5.5003,5.4977,5.491,5.4986,5.4902,5.4899,5.4913,5.4777,5.4758,5.4647,5.4821,5.4819,5.4817,0,5.5684,5.5629,5.5609,5.5583,5.5533,5.5484,5.5414,5.5353,5.5318,5.5272,5.5212,5.5122,5.5143,5.5104,5.5099,5.5049,5.4955,5.5076,5.5074,5.5054,5.4833,5.4816,5.4798,5.4962,5.4959,5.4956,5.4837,0,5.5828,5.5767,5.5715,5.5656,5.5616,5.5545,5.553,5.549,5.5491,5.5473,5.5383,5.5343,5.5275,5.5249,5.5247,5.514,5.5154,5.5175,5.5217,5.5128,5.5088,5.5072,5.5279,5.528,5.5281,5.5282,0,0,5.5974,5.5887,5.5885,5.5819,5.5784,5.5802,5.5727,5.5695,5.5628,5.5603,5.5628,5.5495,5.5459,5.535,5.5321,5.5293,5.5271,5.5302,5.5171,5.5159,5.5147,5.5105,5.5088,5.5283,5.5284,5.5284,5.5284,0,5.6024,5.5996,5.5924,5.5893,5.5845,5.5831,5.5814,5.5767,5.5752,5.5664,5.5675,5.5618,5.551,5.5471,5.5437,5.5317,5.5324,5.5297,5.5239,5.5181,5.5168,5.5156,5.5112,5.5096,5.5286,5.5286,5.5286,0,5.6134,5.6104,5.6068,5.5993,5.596,5.5899,5.5943,5.5876,5.5829,5.5844,5.5756,5.573,5.5675,5.5575,5.5529,5.5549,5.5374,5.5425,5.5419,5.5412,5.5355,5.5339,5.5325,5.5513,5.5514,5.5515,0,0,5.6179,5.6122,5.6085,5.6002,5.5981,5.5958,5.5923,5.5921,5.5875,5.5856,5.5822,5.5775,5.5712,5.567,5.561,5.5502,5.5489,5.5454,5.5443,5.5435,5.5423,5.5364,5.5348,5.5519,5.5519,5.5519,0,0,5.6198,5.6154,5.6164,5.6066,5.6025,5.5979,5.5927,5.5937,5.5882,5.5888,5.5875,5.5861,5.5767,5.5739,5.5787,5.5624,5.5666,5.5654,5.5645,5.5631,5.562,5.5628,5.582,0,0,0,0,0,5.6241,5.616,5.617,5.6151,5.6053,5.5975,5.5962,5.5952,5.5984,5.5943,5.5917,5.5929,5.5763,5.5805,5.5784,5.5729,5.5562,5.5554,5.5547,5.551,5.5495,5.5483,0,0,0,0,0,0,5.6233,5.6211,5.6172,5.6124,5.6102,5.5978,5.6029,5.6024,5.5988,5.5992,5.5934,5.5927,5.5914,5.5814,5.5796,5.5744,5.5826,5.5559,5.5552,5.5546,5.5505,5.5493,5.5483,0,0,0,0,0,5.6227,5.6209,5.6055,5.6125,5.6105,5.6074,5.6032,5.6028,5.6,5.5958,5.5951,5.5996,5.5913,5.5896,5.5803,5.5753,5.5839,5.5832,5.5555,5.5549,5.5545,5.5499,0,0,0,0,0,0,5.6223,5.6204,5.6051,5.6045,5.6155,5.6081,5.6069,5.6032,5.5967,5.596,5.602,5.6024,5.5911,5.5898,5.5885,5.5757,5.585,5.5842,5.5838,5.5551,5.5547,5.5543,0,0,0,0,0,0,5.6213,5.6198,5.6048,5.6086,5.6084,5.6087,5.6076,5.5995,5.5966,5.6033,5.6034,5.6022,5.5928,5.5899,5.589,5.5762,5.5858,5.5851,5.5846,5.5843,5.5547,5.5544,0,0,0,0,0,0,5.6207,5.6194,5.6088,5.6086,5.6085,5.6012,5.6014,5.5912,5.6004,5.6035,5.6012,5.6015,5.5929,5.5919,5.5892,5.5769,5.5764,5.5857,5.5853,5.5849,5.5847,0,0,0,0,0,0,0,5.6201,5.6292,5.609,5.6086,5.6085,5.5986,5.5984,5.5982,5.6005,5.6008,5.6011,5.6014,5.5896,5.5889,5.5881,5.5775,0,0,5.5858,5.5855,0,0,0,0,0,0,0,0,5.6297,5.6294,5.6089,5.6088,5.6087,5.5986,5.5984,5.5983,5.6006,5.6008,5.601,5.6013,5.5894,5.5888,5.5882,0,0,0,0,0,0,0,0,0,0,0,0,0,0,0,5.6089,5.6088,0,5.5985,5.5984,5.5983,5.6006,5.6008,5.601,5.6012,5.5892,5.5887,5.5882,0,0,0,0,0,0,0,0,0,0,0,0,0,0,0,0,0,0,0,0,0,0,0,0,0,0,0,0,0,0,0,0,0,0,0,0,0,0,0,0,0,0,0,0,0,0,0,0,0,0,0,0,0,0,0,0,0,0,0,0,0,0,0,0,0,0,0,0,0]}]]]